Time,TemperatureF,DewpointF,PressureIn,WindDirection,WindDirectionDegrees,WindSpeedMPH,WindSpeedGustMPH,Humidity,HourlyPrecipIn,Conditions,Clouds,dailyrainin,SoftwareType,DateUTC
2013-08-05 00:02:00,54.0,48.0,-100.00,North,0,7.0,14.0,81,0.00,,,0.00,,2013-08-05 08:02:00,
2013-08-05 00:12:00,54.0,48.0,-100.00,North,0,7.0,14.0,81,0.00,,,0.00,,2013-08-05 08:12:00,
2013-08-05 00:34:00,53.0,48.0,-100.00,North,350,6.0,11.0,83,0.00,,,0.00,,2013-08-05 08:34:00,
2013-08-05 00:45:00,53.0,48.0,-100.00,North,350,6.0,11.0,83,0.00,,,0.00,,2013-08-05 08:45:00,
2013-08-05 01:05:00,53.0,47.0,-100.00,North,0,4.0,10.0,79,0.00,,,0.00,,2013-08-05 09:05:00,
2013-08-05 01:14:00,53.0,47.0,-100.00,North,0,4.0,10.0,79,0.00,,,0.00,,2013-08-05 09:14:00,
2013-08-05 01:20:00,54.0,44.0,-100.00,SSW,195,4.0,7.0,68,0.00,,,0.00,,2013-08-05 09:20:00,
2013-08-05 01:45:00,54.0,45.0,-100.00,North,10,3.0,6.0,72,0.00,,,0.00,,2013-08-05 09:45:00,
2013-08-05 01:53:00,54.0,44.0,-100.00,SSW,195,4.0,7.0,68,0.00,,,0.00,,2013-08-05 09:53:00,
2013-08-05 02:05:00,54.0,44.0,-100.00,SSW,195,4.0,7.0,68,0.00,,,0.00,,2013-08-05 10:05:00,
2013-08-05 02:12:00,54.0,44.0,-100.00,SSW,195,4.0,7.0,68,0.00,,,0.00,,2013-08-05 10:12:00,
2013-08-05 02:20:00,53.0,46.0,-100.00,North,350,2.0,4.0,77,0.00,,,0.00,,2013-08-05 10:20:00,
2013-08-05 02:32:00,53.0,45.0,-100.00,NW,325,2.0,4.0,76,0.00,,,0.00,,2013-08-05 10:32:00,
2013-08-05 02:45:00,53.0,45.0,-100.00,NW,325,2.0,4.0,76,0.00,,,0.00,,2013-08-05 10:45:00,
2013-08-05 03:04:00,53.0,46.0,-100.00,North,350,2.0,4.0,77,0.00,,,0.00,,2013-08-05 11:04:00,
2013-08-05 03:14:00,53.0,46.0,-100.00,North,350,2.0,4.0,77,0.00,,,0.00,,2013-08-05 11:14:00,
2013-08-05 03:46:00,54.0,46.0,-100.00,NNW,340,2.0,2.0,75,0.00,,,0.00,,2013-08-05 11:46:00,
2013-08-05 03:54:00,54.0,46.0,-100.00,North,355,2.0,2.0,74,0.00,,,0.00,,2013-08-05 11:54:00,
2013-08-05 04:05:00,54.0,46.0,-100.00,North,355,2.0,2.0,74,0.00,,,0.00,,2013-08-05 12:05:00,
2013-08-05 04:23:00,54.0,45.0,-100.00,North,355,1.0,2.0,74,0.00,,,0.00,,2013-08-05 12:23:00,
2013-08-05 04:33:00,54.0,45.0,-100.00,North,355,1.0,2.0,74,0.00,,,0.00,,2013-08-05 12:33:00,
2013-08-05 04:45:00,54.0,45.0,-100.00,North,355,1.0,2.0,74,0.00,,,0.00,,2013-08-05 12:45:00,
2013-08-05 04:53:00,52.0,45.0,-100.00,North,0,3.0,5.0,78,0.00,,,0.00,,2013-08-05 12:53:00,
2013-08-05 05:02:00,52.0,45.0,-100.00,North,0,3.0,5.0,78,0.00,,,0.00,,2013-08-05 13:02:00,
2013-08-05 05:13:00,52.0,45.0,-100.00,North,0,3.0,5.0,78,0.00,,,0.00,,2013-08-05 13:13:00,
2013-08-05 05:20:00,52.0,45.0,-100.00,NNW,345,1.0,4.0,77,0.00,,,0.00,,2013-08-05 13:20:00,
2013-08-05 05:43:00,52.0,45.0,-100.00,NNW,340,2.0,4.0,79,0.00,,,0.00,,2013-08-05 13:43:00,
2013-08-05 06:04:00,52.0,45.0,-100.00,NNW,345,1.0,4.0,77,0.00,,,0.00,,2013-08-05 14:04:00,
2013-08-05 06:14:00,52.0,45.0,-100.00,NNW,345,1.0,4.0,77,0.00,,,0.00,,2013-08-05 14:14:00,
2013-08-05 06:34:00,53.0,44.0,-100.00,WNW,295,1.0,3.0,71,0.00,,,0.00,,2013-08-05 14:34:00,
2013-08-05 06:44:00,53.0,44.0,-100.00,WNW,295,1.0,3.0,71,0.00,,,0.00,,2013-08-05 14:44:00,
2013-08-05 07:05:00,54.0,44.0,-100.00,West,275,0.0,1.0,69,0.00,,,0.00,,2013-08-05 15:05:00,
2013-08-05 07:12:00,54.0,44.0,-100.00,West,275,0.0,1.0,69,0.00,,,0.00,,2013-08-05 15:12:00,
2013-08-05 07:20:00,55.0,44.0,-100.00,North,5,1.0,1.0,67,0.00,,,0.00,,2013-08-05 15:20:00,
2013-08-05 07:34:00,54.0,44.0,-100.00,ENE,60,0.0,1.0,70,0.00,,,0.00,,2013-08-05 15:34:00,
2013-08-05 07:44:00,54.0,44.0,-100.00,ENE,60,0.0,1.0,70,0.00,,,0.00,,2013-08-05 15:44:00,
2013-08-05 07:54:00,55.0,44.0,-100.00,North,5,1.0,1.0,67,0.00,,,0.00,,2013-08-05 15:54:00,
2013-08-05 08:04:00,55.0,44.0,-100.00,North,5,1.0,1.0,67,0.00,,,0.00,,2013-08-05 16:04:00,
2013-08-05 08:13:00,55.0,44.0,-100.00,North,5,1.0,1.0,67,0.00,,,0.00,,2013-08-05 16:13:00,
2013-08-05 08:20:00,54.0,46.0,-100.00,ENE,65,1.0,4.0,76,0.00,,,0.00,,2013-08-05 16:20:00,
2013-08-05 08:33:00,53.0,45.0,-100.00,SSE,160,2.0,2.0,74,0.00,,,0.00,,2013-08-05 16:33:00,
2013-08-05 09:03:00,54.0,46.0,-100.00,ENE,65,1.0,4.0,76,0.00,,,0.00,,2013-08-05 17:03:00,
2013-08-05 09:14:00,54.0,46.0,-100.00,ENE,65,1.0,4.0,76,0.00,,,0.00,,2013-08-05 17:14:00,
2013-08-05 09:20:00,57.0,48.0,-100.00,SE,135,1.0,4.0,72,0.00,,,0.00,,2013-08-05 17:20:00,
2013-08-05 09:45:00,56.0,47.0,-100.00,NNW,330,1.0,3.0,71,0.00,,,0.00,,2013-08-05 17:45:00,
2013-08-05 10:05:00,57.0,48.0,-100.00,SE,135,1.0,4.0,72,0.00,,,0.00,,2013-08-05 18:05:00,
2013-08-05 10:13:00,57.0,48.0,-100.00,SE,135,1.0,4.0,72,0.00,,,0.00,,2013-08-05 18:13:00,
2013-08-05 10:44:00,59.0,49.0,-100.00,SSE,160,3.0,6.0,67,0.00,,,0.00,,2013-08-05 18:44:00,
2013-08-05 11:05:00,59.0,47.0,-100.00,SE,130,1.0,6.0,64,0.00,,,0.00,,2013-08-05 19:05:00,
2013-08-05 11:14:00,59.0,47.0,-100.00,SE,130,1.0,6.0,64,0.00,,,0.00,,2013-08-05 19:14:00,
2013-08-05 11:20:00,64.0,45.0,-100.00,NE,35,3.0,6.0,50,0.00,,,0.00,,2013-08-05 19:20:00,
2013-08-05 11:34:00,62.0,46.0,-100.00,ENE,60,2.0,6.0,56,0.00,,,0.00,,2013-08-05 19:34:00,
2013-08-05 11:47:00,62.0,46.0,-100.00,ENE,60,2.0,6.0,56,0.00,,,0.00,,2013-08-05 19:47:00,
2013-08-05 12:05:00,64.0,45.0,-100.00,NE,35,3.0,6.0,50,0.00,,,0.00,,2013-08-05 20:05:00,
2013-08-05 12:14:00,64.0,45.0,-100.00,NE,35,3.0,6.0,50,0.00,,,0.00,,2013-08-05 20:14:00,
2013-08-05 12:46:00,66.0,46.0,-100.00,SSW,195,2.0,8.0,49,0.00,,,0.00,,2013-08-05 20:46:00,
2013-08-05 13:05:00,66.0,43.0,-100.00,SSE,150,2.0,7.0,43,0.00,,,0.00,,2013-08-05 21:05:00,
2013-08-05 13:14:00,66.0,43.0,-100.00,SSE,150,2.0,7.0,43,0.00,,,0.00,,2013-08-05 21:14:00,
2013-08-05 13:33:00,67.0,43.0,-100.00,East,85,1.0,6.0,42,0.00,,,0.00,,2013-08-05 21:33:00,
2013-08-05 13:45:00,67.0,43.0,-100.00,East,85,1.0,6.0,42,0.00,,,0.00,,2013-08-05 21:45:00,
2013-08-05 14:05:00,68.0,43.0,-100.00,SSE,150,2.0,10.0,39,0.00,,,0.00,,2013-08-05 22:05:00,
2013-08-05 14:13:00,68.0,43.0,-100.00,SSE,150,2.0,10.0,39,0.00,,,0.00,,2013-08-05 22:13:00,
2013-08-05 14:20:00,68.0,43.0,-100.00,SE,135,2.0,6.0,40,0.00,,,0.00,,2013-08-05 22:20:00,
2013-08-05 14:35:00,69.0,43.0,-100.00,South,180,3.0,8.0,38,0.00,,,0.00,,2013-08-05 22:35:00,
2013-08-05 14:43:00,69.0,43.0,-100.00,South,180,3.0,8.0,38,0.00,,,0.00,,2013-08-05 22:43:00,
2013-08-05 15:04:00,68.0,43.0,-100.00,SE,135,2.0,6.0,40,0.00,,,0.00,,2013-08-05 23:04:00,
2013-08-05 15:13:00,68.0,43.0,-100.00,SE,135,2.0,6.0,40,0.00,,,0.00,,2013-08-05 23:13:00,
2013-08-05 15:45:00,71.0,44.0,-100.00,East,90,1.0,8.0,38,0.00,,,0.00,,2013-08-05 23:45:00,
2013-08-05 15:54:00,71.0,44.0,-100.00,SE,145,4.0,11.0,36,0.00,,,0.00,,2013-08-05 23:54:00,
2013-08-05 16:02:00,71.0,44.0,-100.00,SE,145,4.0,11.0,36,0.00,,,0.00,,2013-08-06 00:02:00,
2013-08-05 16:14:00,71.0,44.0,-100.00,SE,145,4.0,11.0,36,0.00,,,0.00,,2013-08-06 00:14:00,
2013-08-05 16:45:00,71.0,43.0,-100.00,SE,130,2.0,11.0,37,0.00,,,0.00,,2013-08-06 00:45:00,
2013-08-05 16:54:00,70.0,44.0,-100.00,ESE,110,3.0,9.0,38,0.00,,,0.00,,2013-08-06 00:54:00,
2013-08-05 17:05:00,70.0,44.0,-100.00,ESE,110,3.0,9.0,38,0.00,,,0.00,,2013-08-06 01:05:00,
2013-08-05 17:14:00,70.0,44.0,-100.00,ESE,110,3.0,9.0,38,0.00,,,0.00,,2013-08-06 01:14:00,
2013-08-05 17:20:00,71.0,43.0,-100.00,SSE,160,4.0,8.0,36,0.00,,,0.00,,2013-08-06 01:20:00,
2013-08-05 17:46:00,70.0,43.0,-100.00,SSE,160,3.0,7.0,37,0.00,,,0.00,,2013-08-06 01:46:00,
2013-08-05 18:13:00,71.0,43.0,-100.00,SSE,160,4.0,8.0,36,0.00,,,0.00,,2013-08-06 02:13:00,
2013-08-05 18:32:00,71.0,42.0,-100.00,SSE,165,4.0,9.0,36,0.00,,,0.00,,2013-08-06 02:32:00,
2013-08-05 18:52:00,71.0,43.0,-100.00,SE,145,3.0,7.0,36,0.00,,,0.00,,2013-08-06 02:52:00,
2013-08-05 19:01:00,71.0,43.0,-100.00,SE,145,3.0,7.0,36,0.00,,,0.00,,2013-08-06 03:01:00,
2013-08-05 19:14:00,71.0,43.0,-100.00,SE,145,3.0,7.0,36,0.00,,,0.00,,2013-08-06 03:14:00,
2013-08-05 19:35:00,70.0,42.0,-100.00,South,175,3.0,8.0,36,0.00,,,0.00,,2013-08-06 03:35:00,
2013-08-05 19:45:00,70.0,42.0,-100.00,South,175,3.0,8.0,36,0.00,,,0.00,,2013-08-06 03:45:00,
2013-08-05 20:01:00,70.0,41.0,-100.00,SSE,150,5.0,9.0,35,0.00,,,0.00,,2013-08-06 04:01:00,
2013-08-05 20:11:00,70.0,41.0,-100.00,SSE,150,5.0,9.0,35,0.00,,,0.00,,2013-08-06 04:11:00,
2013-08-05 20:33:00,70.0,41.0,-100.00,SE,140,4.0,10.0,34,0.00,,,0.00,,2013-08-06 04:33:00,
2013-08-05 20:44:00,70.0,41.0,-100.00,SE,140,4.0,10.0,34,0.00,,,0.00,,2013-08-06 04:44:00,
2013-08-05 21:02:00,68.0,39.0,-100.00,SSE,160,3.0,9.0,34,0.00,,,0.00,,2013-08-06 05:02:00,
2013-08-05 21:11:00,68.0,39.0,-100.00,SSE,160,3.0,9.0,34,0.00,,,0.00,,2013-08-06 05:11:00,
2013-08-05 21:20:00,65.0,38.0,-100.00,SSE,150,2.0,7.0,37,0.00,,,0.00,,2013-08-06 05:20:00,
2013-08-05 21:32:00,67.0,39.0,-100.00,SSE,150,2.0,9.0,35,0.00,,,0.00,,2013-08-06 05:32:00,
2013-08-05 21:43:00,67.0,39.0,-100.00,SSE,150,2.0,9.0,35,0.00,,,0.00,,2013-08-06 05:43:00,
2013-08-05 21:53:00,65.0,38.0,-100.00,SSE,150,2.0,7.0,37,0.00,,,0.00,,2013-08-06 05:53:00,
2013-08-05 22:01:00,65.0,38.0,-100.00,SSE,150,2.0,7.0,37,0.00,,,0.00,,2013-08-06 06:01:00,
2013-08-05 22:11:00,65.0,38.0,-100.00,SSE,150,2.0,7.0,37,0.00,,,0.00,,2013-08-06 06:11:00,
2013-08-05 22:20:00,62.0,38.0,-100.00,South,175,3.0,9.0,40,0.00,,,0.00,,2013-08-06 06:20:00,
2013-08-05 22:43:00,64.0,38.0,-100.00,SSE,160,2.0,7.0,38,0.00,,,0.00,,2013-08-06 06:43:00,
2013-08-05 23:01:00,62.0,38.0,-100.00,South,175,3.0,9.0,40,0.00,,,0.00,,2013-08-06 07:01:00,
2013-08-05 23:11:00,62.0,38.0,-100.00,South,175,3.0,9.0,40,0.00,,,0.00,,2013-08-06 07:11:00,
2013-08-05 23:20:00,60.0,38.0,-100.00,SSE,150,2.0,6.0,44,0.00,,,0.00,,2013-08-06 07:20:00,
2013-08-05 23:32:00,61.0,38.0,-100.00,SSE,150,2.0,6.0,42,0.00,,,0.00,,2013-08-06 07:32:00,
2013-08-05 23:43:00,61.0,38.0,-100.00,SSE,150,2.0,6.0,42,0.00,,,0.00,,2013-08-06 07:43:00,
2013-08-05 23:53:00,60.0,38.0,-100.00,SSE,150,2.0,6.0,44,0.00,,,0.00,,2013-08-06 07:53:00,